Regional Weather Roundup
Issued by NWS

Home | Current Version | Previous Version | Graphics & Text | Print | Product List | Glossary On
Versions: 1 2 3 4 5 6 7 8 9 10 11 12 13 14 15 16 17 18 19 20 21 22 23 24 25 26 27 28 29 30 31 32 33 34 35 36 37 38 39 40 41 42 43 44 45 46 47 48 49 50
562
ASUS45 KCYS 162310
RWRWY

WYOMING REGIONAL WEATHER ROUNDUP
NATIONAL WEATHER SERVICE CHEYENNE WY
400 PM MST MON JAN 16 2017

NOTE:  "FAIR" INDICATES FEW OR NO CLOUDS BELOW 12,000 FEET
WITH NO SIGNIFICANT WEATHER AND/OR OBSTRUCTIONS TO VISIBILITY.

WYZ001-170000-
YELLOWSTONE NATIONAL PARK

CITY           SKY/WX    TMP DP  RH WIND       PRES   REMARKS
LK YELLOWSTONE   N/A      5  -1  76 CALM      30.16R
W YELLOWSTONE  NOT AVBL

$$
WYZ002>013-054>058-071-098>099-170000-
NORTHERN WYOMING

CITY           SKY/WX    TMP DP  RH WIND       PRES   REMARKS
JACKSON        SUNNY      3   1  92 CALM      30.21R
CODY           FAIR      28  11  48 CALM      30.09R
GREYBULL       FAIR       2  -7  66 NW6       30.16S WCI  -9
WORLAND        FAIR      13   2  61 CALM      30.13S
SHERIDAN       FAIR      26  12  55 SW12      30.09R WCI  16
BUFFALO        FAIR      34  11  38 CALM      30.09R
GILLETTE       FAIR      29  15  56 W7        30.09R WCI  22
HULETT         FAIR      32  12  43 CALM      30.10R
NEWCASTLE      FAIR      30  14  51 N12       30.08R WCI  21

$$
WYZ014>020-022>026-101>103-170000-
CENTRAL WYOMING

CITY           SKY/WX    TMP DP  RH WIND       PRES   REMARKS
BIG PINEY      FAIR      -1  -7  75 CALM      30.14F
PINEDALE       FAIR       7  -4  61 CALM      30.14S
DUBOIS         NOT AVBL
LANDER         FAIR      15   7  70 SE3       30.09F
RIVERTON       FAIR      10   4  76 CALM      30.11F
CASPER         FAIR      31  10  41 SW15      30.10R WCI  20
DOUGLAS        FAIR      37  11  34 W12       30.09R WCI  29

$$
WYZ021-027>030-104>119-170000-
SOUTHERN WYOMING

CITY           SKY/WX    TMP DP  RH WIND       PRES   REMARKS
EVANSTON       FAIR      10   6  84 CALM      30.15R
ROCK SPRINGS   FAIR       4   0  83 CALM      30.15S
RAWLINS        FAIR      16   6  65 SW7       30.11R WCI   6
LARAMIE        FAIR      24  13  62 NE5       30.06R WCI  18
CHEYENNE       FAIR      36  10  34 N9        30.05R WCI  29
TORRINGTON     FAIR      42  11  28 NW13      30.07R

$$




USA.gov is the U.S. government's official web portal to all federal, state and local government web resources and services.